Location: Domont
(49.0278°N, 2.3264°E)
Time: 12:41:52
(UTC+00:00)

DX 1 - Pass Details

Date: 27 June 2022
Orbit: 617 x 630 km, 98.4° (Epoch: 13 August)

Event Time Altitude Azimuth Distance (km) Brightness Sun altitude
Rises 21:21:26 0° 12° (NNE) 2,935 ? -10.1°
Reaches altitude 10° 21:23:39 10° 11° (N) 2,022 ? -10.3°
Maximum altitude 21:28:02 74° 287° (WNW) 662 ? -10.7°
Drops below altitude 10° 21:32:23 10° 203° (SSW) 2,001 ? -11.1°
Enters shadow 21:34:22 - 202° (SSW) 2,822 ? -11.3°
